Voltar ao catálogo

INSAT 2B

AtivoComunicaçõesGEO
NORAD 22724·PAYLOAD·🇮🇳 India

Lançado Jul 22, 1993 de Guiana Space Centre

Loading…

TLE

AtualizadoSource: Space-Track

Época: Sep 14, 2026, 12:35 UTC

1 22724U 93048B   26257.52458017  .00000004  00000-0  00000-0 0  9999
2 22724  14.4785   1.9039 0017623 224.9805 140.6064  0.99986136121476

Acompanhe INSAT 2B em tempo real com AllMySat

Download on the App Store